リニア彗星

P/2006 U1 ( LINEAR )

English version
Home page
Total 6,336 html files since Dec. 4, 1995
Updated on February 4, 2007

---------------------------------------------------------------------

・ プロフィール

発見日 2006年10月19日
発見光度 17.3等
発見者 Lincoln Laboratory Near-Earth Asteroid Research project

・ 写真集

・ 軌道要素

T 2006 Aug. 28.5333 TT                                  MPC
q   0.510634             (2000.0)            P               Q
n   0.2130415      Peri.   64.0426      +0.5606363      +0.8181374
a   2.776472       Node   240.6456      -0.8024880      +0.4987427
e   0.816085       Incl.    8.4329      -0.2042058      +0.2861940
P   4.63
From 345 observations 2006 Oct. 19-Dec. 26.

・ 星図

・ 光度変化

        H = 16.0  G = 0.15

---------------------------------------------------------------------

軌道要素はM.P.E.C. 2006-Y58に掲載されたものです。
星図は StellaNavigator Ver.2.0 for Windows (アストロアーツ 編著 / アスキー出版局刊) で作成したものです。
光度グラフはComet for Windowsで作成したものです。

---------------------------------------------------------------------

Copyright(C) 1995-2008 Seiichi Yoshida (comet@aerith.net). All rights reserved.